Location: G�ndlingen
(48.0142°N, 7.6396°E)
Time: 17:18:52
(UTC+00:00)

Meteor 1-11 - Pass Details

Date: 05 July 2020
Orbit: 841 x 886 km, 81.2° (Epoch: 12 August)

Event Time Altitude Azimuth Distance (km) Brightness Sun altitude
Exits shadow 21:05:29 - 188° (S) 2,840 6.5 -11.8°
Reaches altitude 10° 21:06:26 10° 188° (S) 2,471 6.2 -11.9°
Maximum altitude 21:12:03 88° 101° (E) 865 4.2 -12.5°
Drops below altitude 10° 21:17:47 10° 12° (NNE) 2,518 7.4 -13.0°
Sets 21:20:15 0° 12° (NNE) 3,467 8.1 -13.2°
